Temperature
18 18 18 18 18 18 18 18 18 18 18 18 18 18 18 18 18 18 18 18 18 18 18 18 18 18 18 18 18 18 18 18 18 18 18 18 17 17 17 17 17 17 17
18 18 18 18 18 18 18 18 18 18 18 18 18 18 18 18 18 18 18 18 18 18 18 18 18 18 18 18 18 18 18 18 18 18 18 18 18 17 17 17 18 17 17
19 18 18 18 18 18 18 18 18 18 18 18 18 18 18 18 18 18 18 18 18 18 18 18 18 18 18 18 18 17 17 17 17 17 17 17 17 17 17 18 17 17 17
19 19 18 18 18 18 18 18 18 18 18 18 18 18 18 18 18 18 18 18 18 18 18 18 18 18 18 18 17 17 17 17 17 17 17 17 17 17 17 18 17 17 17
19 19 18 18 18 18 18 18 18 18 18 18 18 18 18 18 18 18 18 18 18 18 18 18 18 18 18 17 17 17 17 17 17 17 17 17 17 17 17 17 17 17 17
19 19 19 18 18 18 18 18 18 18 18 18 18 18 18 18 18 18 18 18 18 18 18 18 18 18 18 17 17 17 17 17 17 17 17 17 17 17 17 17 17 17 17
19 19 19 19 19 18 18 18 18 18 18 18 18 18 18 18 18 18 18 18 18 18 18 18 18 18 18 17 17 17 17 17 17 17 17 17 17 17 17 17 17 17 17
19 19 19 19 19 18 18 18 18 18 18 18 18 18 18 18 18 18 18 18 18 18 18 18 18 18 18 17 17 17 17 17 17 17 18 18 18 18 18 17 17 17 17
19 19 19 19 19 18 18 18 18 18 18 18 18 18 18 18 18 18 18 18 18 18 18 18 18 18 18 18 17 17 17 17 17 18 18 18 18 18 18 18 17 17 17
19 19 19 19 19 19 18 18 18 18 18 18 18 18 18 18 18 18 18 18 18 18 18 18 18 18 18 18 18 17 18 18 18 18 18 18 18 18 18 18 18 17 17
19 19 19 19 19 19 19 18 18 18 18 18 18 18 18 18 18 18 18 18 18 18 18 18 18 18 18 18 18 18 18 18 18 18 18 18 18 18 18 18 17 17 17
19 19 19 19 19 19 19 18 18 18 18 18 18 18 18 18 18 18 18 18 18 18 18 18 18 18 18 18 18 18 18 18 18 18 18 18 18 18 18 18 18 17 17
19 19 19 19 19 19 19 19 18 18 18 18 18 18 18 18 18 18 18 18 18 18 18 18 18 18 18 18 18 18 18 18 18 18 18 18 17 17 17 17 17 17 17
19 19 19 19 19 19 19 19 19 18 18 18 18 18 18 18 18 18 18 18 18 18 18 18 18 18 18 18 18 18 18 18 18 18 18 17 17 17 17 17 17 17 17
19 19 19 19 19 19 19 19 18 18 18 18 18 18 18 18 18 18 18 18 18 18 18 18 18 18 18 18 18 18 18 18 18 18 17 17 17 17 17 17 17 17 17
20 19 19 19 19 19 19 19 19 19 18 18 18 18 18 18 18 18 18 18 18 18 18 18 18 18 18 18 18 18 18 18 18 18 18 17 17 17 17 17 17 17 17
20 20 20 19 19 19 19 19 19 19 18 18 18 18 18 18 18 18 18 18 18 18 18 18 18 18 18 18 18 18 18 17 17 17 17 17 17 17 17 17 17 17 16
20 20 20 20 19 19 19 19 19 19 19 19 19 18 18 18 18 18 18 18 18 18 18 18 18 18 18 18 18 18 18 17 17 17 17 17 17 17 17 17 17 16 16
21 20 20 20 20 19 19 19 19 19 19 19 19 18 18 18 18 18 18 18 18 18 18 18 18 18 18 18 18 18 17 17 17 17 17 17 17 17 17 16 16 16 16
21 20 20 20 20 19 19 19 19 19 19 19 18 18 18 18 18 18 18 18 18 18 18 18 18 18 18 18 18 17 17 17 17 17 17 17 17 17 17 17 16 16 16
21 20 20 20 20 20 19 19 19 19 19 19 18 18 18 18 18 18 18 18 18 18 18 18 18 18 18 17 17 17 17 17 17 17 17 17 17 17 16 16 16 16 16
21 21 21 20 20 20 20 19 19 19 19 19 18 18 18 18 18 18 18 18 18 18 18 18 18 18 18 17 17 17 17 17 17 17 17 16 16 16 16 16 16 16 16
21 21 21 21 20 20 20 19 19 19 19 19 19 18 18 18 18 18 18 18 18 18 18 18 18 18 18 17 17 17 17 17 16 16 16 16 16 16 16 16 16 16 16
22 22 21 21 20 20 20 19 19 19 19 19 19 18 18 18 18 18 18 18 18 18 18 18 18 17 17 17 17 17 17 17 16 16 16 16 16 16 16 16 16 16 15
22 22 22 21 21 20 20 20 19 19 19 19 18 18 18 18 18 18 18 18 18 18 18 18 17 17 17 17 17 17 17 17 17 16 15 15 16 15 15 15 15 15 15
23 22 22 21 21 21 20 20 19 19 19 18 18 18 18 18 18 18 18 18 18 18 18 18 18 17 17 17 17 17 17 17 17 16 16 15 15 15 15 15 15 15 15
Wind_Speed
3 5 12 13 14 16 17 18 18 17 17 18 18 19 20 19 19 19 19 19 19 18 18 19 19 19 20 20 20 20 20 19 19 18 18 17 17 17 17 16 16 15 16
4 7 13 14 15 16 17 18 17 17 17 17 18 19 19 19 19 18 18 18 18 18 18 18 19 19 19 19 19 19 19 18 18 18 17 16 16 16 16 15 14 14 16
7 8 12 14 15 16 17 17 17 17 17 18 18 18 18 18 18 18 17 17 17 17 17 17 18 18 18 17 17 17 17 17 17 17 15 13 13 15 14 15 15 15 15
9 10 12 14 15 16 16 16 16 16 17 17 18 18 18 17 17 17 17 16 17 17 16 16 16 16 16 15 15 14 15 15 15 14 12 11 12 14 15 15 14 14 14
9 10 13 14 14 15 15 15 15 16 16 16 17 17 17 17 16 16 16 16 16 16 15 15 15 14 14 13 13 12 12 12 12 11 11 11 11 13 14 14 13 13 13
8 10 13 14 14 14 14 15 15 15 16 16 16 16 16 15 15 15 15 15 14 14 13 13 13 12 12 11 10 9 9 11 11 10 10 11 11 13 13 13 13 12 12
7 9 12 14 14 14 14 14 14 14 15 15 15 15 15 14 14 14 13 13 13 12 12 11 10 10 10 9 8 7 9 10 10 10 10 10 11 13 12 12 12 12 11
9 9 11 13 13 13 14 14 13 14 14 14 14 14 13 13 12 12 12 11 11 11 10 9 9 8 7 7 6 7 8 9 9 9 9 10 12 12 12 11 11 11 11
10 8 8 10 12 13 12 12 12 13 13 13 13 12 12 12 11 10 10 10 9 9 8 8 7 6 5 5 4 4 6 9 10 9 9 9 11 11 11 11 11 11 11
7 6 6 7 8 10 10 11 12 11 11 11 11 11 10 9 9 8 8 8 8 7 6 6 5 4 3 2 2 3 5 8 9 8 8 10 12 12 11 10 10 11 11
7 5 5 6 7 8 9 9 10 9 9 9 8 8 7 6 5 5 6 7 6 6 4 4 3 2 2 1 1 2 4 7 8 8 9 11 13 12 11 10 10 11 11
7 6 5 5 6 7 7 7 7 7 7 7 6 6 5 4 4 4 5 5 4 4 3 2 3 2 2 2 1 1 4 8 7 7 9 12 13 12 11 11 10 10 10
8 7 6 5 6 5 5 6 5 5 6 6 6 5 4 3 3 3 2 2 2 2 2 1 1 1 2 2 2 2 5 7 7 7 9 13 13 12 12 11 11 10 10
7 7 6 5 5 5 5 4 4 4 4 4 5 6 5 3 2 3 2 2 2 2 2 1 1 1 2 3 3 3 4 6 7 7 9 13 13 12 12 12 11 10 10
7 6 6 5 5 5 4 3 4 3 5 6 6 6 6 4 2 2 2 2 2 2 2 2 1 1 1 1 3 4 4 7 8 8 8 12 12 11 11 11 11 11 11
7 7 5 6 5 5 4 3 3 4 5 5 5 5 6 5 3 2 1 1 2 2 2 3 2 1 1 1 2 3 4 6 7 8 8 9 10 10 10 10 11 10 10
8 7 6 6 5 4 4 3 4 5 5 4 4 4 5 5 4 3 1 1 1 1 1 2 2 2 1 2 1 2 3 4 5 6 7 7 7 8 9 10 10 10 10
8 8 7 7 5 4 3 2 3 4 5 4 4 4 4 4 5 4 2 1 1 1 2 2 2 1 1 1 1 1 1 2 4 5 5 6 6 6 7 9 9 8 7
9 9 7 6 6 5 3 3 3 3 3 3 3 4 4 5 4 4 2 1 1 1 1 1 1 2 1 1 1 1 1 1 2 4 4 5 6 5 5 6 7 7 7
9 8 7 6 5 4 3 2 2 1 1 2 3 3 4 4 4 3 2 1 1 1 1 1 1 1 1 1 1 2 1 1 1 2 3 3 4 5 5 5 5 5 5
8 8 7 6 5 4 3 2 2 1 1 1 1 3 3 3 3 3 1 1 1 1 2 2 2 1 0 2 2 2 3 2 1 0 1 2 2 4 4 4 4 3 3
10 9 8 7 6 5 4 3 3 2 1 1 1 1 2 3 4 3 2 1 1 1 1 1 2 1 1 1 2 1 1 3 3 1 1 1 1 2 3 4 4 4 3
11 10 10 8 7 6 5 3 2 1 1 1 1 0 1 2 3 3 3 2 2 2 2 2 2 3 2 2 2 3 2 2 1 2 2 1 1 1 1 3 4 4 4
12 11 9 9 7 6 5 4 4 3 2 2 2 1 1 1 2 3 3 3 2 2 2 2 2 2 2 2 2 2 2 3 2 0 2 2 2 1 1 2 3 4 4
12 11 10 9 7 6 5 5 5 3 3 2 1 1 1 1 1 1 2 2 2 1 2 1 1 1 2 2 2 1 1 1 2 2 1 1 1 1 1 2 2 3 4
11 10 10 9 8 7 6 6 5 5 4 2 1 1 1 1 1 1 1 1 1 1 1 1 2 2 2 2 1 1 1 2 2 3 3 2 1 1 1 1 2 2 3
Wind_Direction
47 69 76 79 83 84 85 86 84 85 89 91 95 98 101 102 102 102 103 103 103 104 105 108 110 109 110 110 112 113 113 114 114 114 113 114 114 115 116 116 115 115 118
117 94 86 82 84 88 89 88 86 88 92 94 98 100 101 102 103 104 104 105 106 105 105 107 108 109 110 111 112 113 114 115 115 114 113 113 115 117 117 117 117 121 121
108 100 93 89 88 90 92 90 89 90 93 97 100 102 102 102 103 104 104 105 106 106 105 106 107 108 110 111 112 114 116 115 115 114 111 109 114 118 119 119 121 123 124
114 107 100 96 95 94 94 93 92 94 96 99 101 102 102 101 102 103 104 104 105 105 106 107 109 111 112 113 114 114 117 120 121 117 113 113 115 119 122 122 124 126 127
110 110 108 103 100 99 99 98 97 97 99 101 103 104 104 103 103 102 104 105 106 107 108 110 112 114 115 114 114 115 119 121 122 116 115 116 120 127 128 129 130 130 131
115 119 115 110 107 104 103 104 102 100 102 103 104 105 105 105 106 106 106 108 108 110 110 111 113 115 114 114 113 110 112 118 116 114 121 126 130 134 134 135 135 135 135
123 123 123 117 113 110 108 107 104 104 104 105 106 107 108 108 109 108 109 111 112 113 113 114 115 115 114 114 112 106 114 121 124 129 131 133 137 138 140 140 141 141 142
131 129 128 126 121 117 115 114 111 110 109 108 108 109 111 111 111 112 113 115 116 116 117 117 118 117 113 113 112 111 121 125 124 130 135 140 145 145 144 146 150 148 147
132 130 131 133 131 125 122 122 122 120 117 116 115 116 117 116 118 119 124 123 123 122 122 124 125 124 117 114 119 126 129 132 127 137 144 145 147 148 149 151 156 157 156
130 132 135 137 136 135 133 130 126 127 125 125 124 124 125 124 124 128 136 136 135 133 133 134 136 137 132 130 141 136 128 135 135 140 143 151 152 152 151 152 155 160 158
136 141 142 143 144 145 146 143 139 136 135 132 133 132 130 127 131 140 147 149 148 148 152 160 170 174 192 234 216 137 118 132 137 142 150 158 158 158 156 156 156 156 159
148 156 153 152 155 157 151 146 152 146 148 147 146 141 142 147 153 148 150 159 166 174 190 195 210 227 249 268 251 150 132 141 146 150 160 164 164 164 164 166 168 169 170
159 155 157 158 159 154 143 152 167 165 165 166 164 163 157 151 153 149 148 151 163 187 216 257 280 267 240 247 227 181 155 148 156 161 168 168 169 172 173 175 177 179 179
155 159 161 159 155 157 146 159 173 171 173 175 181 174 162 147 152 168 185 206 200 208 217 244 281 226 205 210 188 167 164 156 164 165 170 176 178 179 179 181 181 184 188
152 155 155 149 145 151 147 163 166 181 179 176 174 175 168 161 166 181 197 195 197 203 196 186 181 195 176 173 163 159 155 161 167 167 173 181 184 185 187 188 186 189 190
159 160 157 147 146 144 146 162 161 172 169 168 167 178 172 166 168 172 179 191 205 210 199 180 181 168 159 137 139 155 159 164 165 170 179 186 189 190 192 192 192 193 194
161 162 159 153 146 139 142 150 146 152 148 152 164 167 160 154 155 155 138 159 210 205 188 137 133 120 95 95 103 125 144 155 164 173 178 182 190 196 200 202 201 203 204
158 159 165 160 153 150 146 139 129 145 148 157 164 166 160 151 150 149 137 173 218 132 125 118 124 102 64 71 81 85 116 138 160 168 173 182 191 202 211 211 211 208 212
162 162 166 157 157 162 158 146 140 144 155 162 159 170 176 167 156 147 157 193 190 114 109 128 119 141 139 113 104 65 91 123 153 160 170 179 184 190 199 211 211 201 209
163 163 165 160 164 161 144 118 101 97 153 173 175 188 185 183 171 147 158 191 159 123 90 100 139 137 149 141 97 51 17 12 128 152 173 173 182 188 192 192 191 199 207
163 160 164 160 170 158 149 148 150 174 205 215 196 189 191 190 172 154 147 164 154 152 170 153 142 111 107 124 97 43 13 7 360 225 155 155 165 172 162 164 173 180 194
172 168 167 170 171 171 173 175 171 172 198 202 187 182 197 189 180 167 164 180 173 154 144 149 143 140 202 159 142 126 14 358 2 1 81 144 156 151 153 155 141 141 139
176 176 177 179 175 176 170 148 132 88 32 22 18 272 249 197 188 180 172 181 185 173 185 200 185 175 209 237 177 154 165 212 300 352 15 63 103 112 129 129 129 135 139
183 179 175 177 177 178 170 160 158 166 185 215 209 202 229 212 199 194 194 188 194 190 194 210 193 193 182 227 250 211 187 172 170 280 342 6 48 92 132 130 123 137 145
181 177 177 175 180 180 174 172 169 177 191 199 182 170 212 283 257 228 194 178 193 202 202 208 209 199 189 203 220 225 189 163 163 179 235 316 19 13 69 111 114 122 141
179 178 177 176 183 184 181 178 175 178 177 162 175 188 213 267 294 292 155 163 190 202 210 217 208 205 202 195 197 185 180 184 192 178 197 206 204 316 41 90 110 117 127
Height
1534 1531 1529 1527 1526 1524 1523 1523 1523 1522 1522 1523 1524 1524 1525 1526 1526 1527 1528 1529 1530 1531 1532 1533 1534 1536 1538 1539 1540 1542 1543 1544 1545 1546 1547 1548 1549 1550 1551 1551 1552 1552 1553
1535 1533 1532 1529 1528 1527 1526 1526 1525 1525 1525 1526 1527 1527 1528 1529 1530 1531 1531 1532 1533 1534 1535 1536 1537 1539 1540 1542 1543 1544 1545 1546 1547 1549 1549 1550 1551 1552 1552 1553 1554 1554 1555
1536 1535 1534 1532 1531 1530 1530 1529 1529 1528 1528 1529 1530 1531 1531 1532 1533 1534 1535 1535 1536 1537 1538 1539 1540 1541 1543 1544 1545 1546 1547 1549 1550 1551 1551 1552 1553 1554 1554 1555 1555 1556 1556
1538 1537 1536 1535 1534 1533 1533 1532 1532 1531 1532 1532 1533 1534 1534 1535 1536 1537 1538 1538 1539 1540 1541 1542 1543 1544 1545 1547 1548 1549 1550 1551 1552 1553 1553 1554 1554 1555 1556 1556 1557 1557 1558
1539 1539 1538 1537 1537 1536 1536 1536 1535 1535 1535 1535 1536 1537 1537 1538 1539 1540 1541 1541 1542 1543 1544 1545 1546 1547 1548 1549 1550 1551 1552 1553 1554 1554 1555 1556 1556 1557 1557 1557 1558 1558 1559
1541 1541 1541 1540 1539 1539 1539 1539 1539 1538 1539 1539 1539 1539 1540 1541 1542 1543 1544 1544 1545 1546 1547 1548 1549 1550 1551 1552 1553 1553 1554 1555 1555 1556 1556 1557 1557 1558 1558 1558 1559 1559 1560
1543 1543 1543 1543 1542 1542 1542 1542 1542 1542 1542 1542 1542 1543 1544 1544 1545 1546 1547 1547 1548 1549 1550 1550 1551 1552 1553 1554 1555 1555 1556 1556 1557 1558 1558 1558 1558 1558 1559 1559 1559 1560 1561
1545 1545 1545 1545 1545 1544 1544 1544 1545 1545 1545 1545 1545 1546 1547 1547 1548 1549 1549 1550 1551 1551 1552 1553 1554 1555 1555 1556 1557 1557 1557 1558 1559 1559 1559 1559 1559 1559 1559 1559 1560 1560 1561
1547 1547 1547 1547 1547 1547 1547 1547 1547 1547 1548 1548 1548 1549 1549 1550 1551 1551 1552 1552 1553 1553 1554 1555 1556 1557 1557 1558 1559 1559 1559 1559 1560 1560 1560 1560 1560 1560 1560 1560 1560 1561 1561
1549 1549 1549 1549 1549 1549 1549 1549 1550 1550 1550 1551 1551 1551 1552 1552 1553 1553 1554 1554 1555 1555 1556 1557 1558 1559 1559 1560 1560 1560 1560 1561 1561 1561 1561 1561 1561 1561 1561 1561 1560 1561 1562
1550 1551 1551 1551 1551 1551 1551 1552 1552 1552 1553 1553 1553 1554 1554 1554 1555 1555 1555 1556 1557 1557 1558 1558 1559 1560 1560 1561 1561 1561 1561 1561 1562 1562 1562 1562 1561 1561 1561 1561 1561 1561 1562
1551 1552 1552 1553 1553 1553 1554 1554 1554 1554 1555 1555 1555 1556 1556 1556 1557 1557 1557 1558 1558 1558 1559 1559 1560 1560 1561 1561 1561 1562 1562 1562 1562 1562 1562 1562 1562 1562 1562 1561 1561 1561 1562
1552 1553 1554 1554 1554 1555 1555 1556 1556 1556 1557 1557 1557 1557 1557 1558 1558 1558 1558 1559 1559 1559 1560 1560 1561 1561 1561 1561 1562 1562 1562 1562 1562 1562 1562 1562 1562 1562 1562 1561 1561 1561 1562
1553 1554 1554 1555 1556 1556 1557 1557 1558 1558 1558 1558 1558 1558 1558 1559 1559 1559 1559 1560 1560 1560 1560 1560 1561 1561 1561 1561 1561 1561 1562 1562 1562 1562 1562 1562 1562 1562 1561 1561 1561 1561 1561
1553 1554 1555 1555 1556 1557 1558 1558 1559 1559 1559 1559 1559 1559 1559 1560 1560 1560 1560 1560 1560 1560 1560 1560 1561 1561 1561 1561 1561 1561 1561 1561 1561 1561 1561 1561 1561 1561 1561 1561 1560 1560 1560
1554 1555 1555 1556 1557 1558 1559 1559 1559 1560 1560 1560 1560 1560 1560 1560 1560 1560 1560 1560 1560 1560 1560 1560 1560 1560 1560 1560 1561 1561 1561 1561 1561 1561 1561 1561 1561 1560 1560 1560 1560 1559 1559
1554 1555 1556 1557 1558 1558 1559 1559 1560 1560 1561 1560 1560 1560 1560 1560 1560 1560 1560 1560 1560 1560 1560 1560 1560 1560 1560 1560 1560 1560 1560 1560 1560 1560 1560 1560 1560 1559 1559 1559 1559 1559 1558
1553 1554 1556 1557 1557 1558 1559 1560 1560 1560 1561 1561 1561 1560 1560 1560 1560 1560 1560 1560 1560 1560 1560 1559 1559 1559 1559 1559 1559 1559 1559 1559 1558 1558 1558 1558 1558 1558 1558 1558 1558 1557 1557
1553 1554 1555 1556 1557 1558 1559 1560 1560 1561 1561 1561 1560 1560 1560 1560 1559 1559 1559 1559 1559 1559 1559 1559 1558 1558 1558 1558 1558 1558 1558 1557 1557 1557 1557 1557 1557 1556 1556 1556 1556 1556 1555
1552 1554 1555 1556 1557 1558 1558 1559 1559 1560 1560 1560 1560 1560 1560 1559 1559 1559 1558 1558 1558 1558 1558 1558 1558 1557 1557 1557 1557 1556 1556 1556 1556 1555 1555 1555 1555 1555 1554 1554 1554 1554 1553
1552 1553 1554 1555 1556 1557 1557 1558 1558 1559 1559 1559 1559 1559 1559 1558 1558 1558 1558 1557 1557 1557 1557 1557 1556 1556 1556 1556 1556 1555 1555 1555 1555 1554 1554 1554 1553 1553 1552 1552 1553 1552 1552
1550 1551 1553 1554 1555 1556 1556 1557 1557 1558 1558 1559 1558 1558 1558 1558 1557 1557 1557 1557 1556 1556 1556 1556 1555 1555 1554 1555 1554 1554 1554 1555 1554 1553 1553 1552 1552 1551 1551 1550 1551 1550 1550
1548 1550 1551 1552 1554 1555 1555 1556 1557 1557 1557 1558 1557 1557 1557 1557 1557 1556 1556 1556 1555 1555 1555 1554 1554 1553 1553 1553 1553 1553 1553 1552 1552 1553 1552 1552 1551 1550 1549 1549 1549 1549 1548
1546 1548 1550 1551 1552 1553 1554 1555 1555 1555 1556 1556 1556 1556 1556 1556 1556 1556 1555 1555 1554 1554 1553 1553 1552 1552 1552 1551 1551 1551 1552 1551 1551 1551 1551 1551 1550 1549 1549 1548 1548 1547 1547
1544 1546 1548 1550 1551 1552 1553 1553 1554 1554 1555 1555 1555 1555 1555 1555 1555 1554 1554 1553 1553 1553 1552 1551 1551 1550 1550 1549 1549 1549 1549 1549 1549 1549 1548 1549 1549 1548 1548 1547 1546 1546 1545
1543 1545 1546 1548 1549 1550 1551 1552 1553 1553 1554 1554 1554 1554 1554 1554 1553 1553 1552 1552 1551 1551 1550 1550 1549 1548 1548 1548 1547 1547 1547 1547 1546 1546 1546 1546 1546 1546 1546 1546 1545 1545 1544